DW9996 Weather Reports


time (UTC)temp
F
wind
direction
speed
knots
gust
knots
rain 1hr
in
rain 24hr
in
rain mn
in
humidity
%
barometer
mb
20260509150002 56 319 1.7 3.5 0.00 0.00 0.00 52 1012.6
20260509144604 55 282 0.9 4.3 0.00 0.00 0.00 55 1012.5
20260509143100 53 305 1.7 4.3 0.00 0.00 0.00 57 1012.5
20260509141608 52 296 1.7 4.3 0.00 0.00 0.00 58 1012.4
20260509140103 51 295 1.7 4.3 0.00 0.00 0.00 59 1012.3
20260509134557 51 300 1.7 4.3 0.00 0.00 0.00 60 1012.2
20260509133055 50 308 1.7 4.3 0.00 0.00 0.00 60 1012.1
20260509131553 50 348 0.9 4.3 0.00 0.00 0.00 60 1011.9
20260509130051 49 325 1.7 4.3 0.00 0.00 0.00 60 1011.9
20260509124557 49 347 0.9 2.6 0.00 0.00 0.00 60 1011.6
20260509123055 49 42 0.9 3.5 0.00 0.00 0.00 60 1011.3
20260509121546 49 241 1.7 5.2 0.00 0.00 0.00 59 1011.3
20260509120043 49 11 2.6 5.2 0.00 0.00 0.00 58 1011.0
20260509114543 49 19 2.6 7.8 0.00 0.00 0.00 58 1010.8
20260509113050 49 5 4.3 8.7 0.00 0.00 0.00 57 1010.7
20260509111545 50 26 3.5 6.1 0.00 0.00 0.00 57 1010.3
20260509110033 50 17 3.5 7.8 0.00 0.00 0.00 57 1010.3
20260509104531 50 360 2.6 6.1 0.00 0.00 0.00 56 1010.3
20260509103029 51 31 3.5 8.7 0.00 0.00 0.00 55 1010.1
20260509101530 51 32 5.2 8.7 0.00 0.00 0.00 55 1009.9
20260509100023 52 11 4.3 6.1 0.00 0.00 0.00 55 1009.7
20260509094523 52 17 3.5 6.1 0.00 0.00 0.00 55 1009.7
20260509093018 51 360 2.6 4.3 0.00 0.00 0.00 58 1009.4
20260509091515 51 333 0.0 1.7 0.00 0.00 0.00 58 1009.4
20260509090011 52 360 1.7 4.3 0.00 0.00 0.00 55 1009.4
20260509084509 53 360 2.6 4.3 0.00 0.00 0.00 53 1009.2
20260509083008 54 111 0.9 1.7 0.00 0.00 0.00 54 1009.0
20260509081506 53 134 0.0 0.0 0.00 0.00 0.00 55 1008.9
20260509080001 54 135 0.9 2.6 0.00 0.00 0.00 54 1008.8
20260509074602 55 111 3.5 7.0 0.00 0.00 0.00 52 1008.7
20260509073106 55 103 3.5 7.0 0.00 0.00 0.00 51 1008.6
20260509071554 55 80 6.1 9.6 0.00 0.00 0.00 50 1008.4
20260509070051 55 80 5.2 7.8 0.00 0.00 0.00 50 1008.1
20260509064547 56 69 3.5 8.7 0.00 0.00 0.00 49 1008.0
20260509063043 56 62 4.3 9.6 0.00 0.00 0.00 47 1007.8
20260509061555 57 86 5.2 9.6 0.00 0.00 0.00 46 1007.8
20260509060037 57 94 5.2 9.6 0.00 0.00 0.00 45 1007.7
20260509054548 58 88 5.2 11.3 0.00 0.00 0.00 44 1007.7
20260509053052 58 360 7.0 12.2 0.00 0.00 0.00 43 1007.5
20260509051536 58 49 7.8 13.0 0.00 0.00 0.00 41 1007.2
20260509050036 59 5 6.1 9.6 0.00 0.00 0.00 39 1007.0
20260509044543 59 355 3.5 6.1 0.00 0.00 0.00 35 1006.7
20260509043035 60 337 3.5 7.0 0.00 0.00 0.00 32 1006.4
20260509041535 61 335 2.6 10.4 0.00 0.00 0.00 30 1006.4
20260509040036 62 355 2.6 6.1 0.00 0.00 0.00 29 1006.2
20260509034536 62 360 2.6 7.0 0.00 0.00 0.00 29 1006.0
20260509033033 63 360 2.6 6.1 0.00 0.00 0.00 28 1005.8
20260509031534 64 327 4.3 10.4 0.00 0.00 0.00 26 1005.6
20260509030032 63 355 3.5 6.1 0.00 0.00 0.00 27 1005.2
20260509024535 65 355 3.5 7.8 0.00 0.00 0.00 26 1005.0
20260509023034 66 344 5.2 9.6 0.00 0.00 0.00 25 1004.9
20260509021531 67 360 6.1 9.6 0.00 0.00 0.00 25 1004.8
20260509020036 68 340 7.8 11.3 0.00 0.00 0.00 24 1004.8
20260509014534 69 355 7.0 11.3 0.00 0.00 0.00 24 1004.7
20260509013029 69 293 6.1 11.3 0.00 0.00 0.00 25 1004.6
20260509011529 70 319 6.1 14.8 0.00 0.00 0.00 26 1004.6
20260509010028 70 346 9.6 15.6 0.00 0.00 0.00 25 1004.5
20260509004536 71 320 5.2 14.8 0.00 0.00 0.00 25 1004.4
20260509003028 71 329 5.2 10.4 0.00 0.00 0.00 25 1004.3
20260509001527 72 338 5.2 13.9 0.00 0.00 0.00 24 1004.3
20260509000026 74 303 6.1 14.8 0.00 0.00 0.00 22 1004.2
20260508234526 74 295 7.8 14.8 0.00 0.00 0.00 20 1004.2
20260508233026 74 283 7.8 16.5 0.00 0.00 0.00 20 1004.1
20260508231525 75 329 8.7 13.9 0.00 0.00 0.00 19 1004.1
20260508230023 75 304 7.8 17.4 0.00 0.00 0.00 18 1004.2
20260508224528 75 302 6.1 13.9 0.00 0.00 0.00 18 1004.3
20260508223035 75 309 7.0 16.5 0.00 0.00 0.00 19 1004.3
20260508221521 75 349 7.8 17.4 0.00 0.00 0.00 18 1004.4
20260508220025 76 298 8.7 16.5 0.00 0.00 0.00 19 1004.4
20260508214519 76 297 6.1 13.9 0.00 0.00 0.00 18 1004.5
20260508213017 75 269 9.6 18.2 0.00 0.00 0.00 17 1004.5
20260508211516 76 311 8.7 16.5 0.00 0.00 0.00 19 1004.5
20260508210015 76 309 7.8 16.5 0.00 0.00 0.00 20 1004.6
20260508204514 74 311 6.1 13.9 0.00 0.00 0.00 20 1004.5
20260508203010 73 294 4.3 10.4 0.00 0.00 0.00 25 1004.8
20260508201514 73 266 6.1 12.2 0.00 0.00 0.00 24 1005.0
20260508200008 74 263 8.7 16.5 0.00 0.00 0.00 23 1005.1
20260508194505 73 295 5.2 16.5 0.00 0.00 0.00 25 1005.1
20260508193004 74 268 7.0 16.5 0.00 0.00 0.00 24 1005.4
20260508191501 73 231 6.1 14.8 0.00 0.00 0.00 26 1005.7
20260508190058 73 297 7.8 14.8 0.00 0.00 0.00 27 1005.9
20260508184557 72 223 8.7 17.4 0.00 0.00 0.00 31 1006.1
20260508183054 72 254 4.3 11.3 0.00 0.00 0.00 32 1006.4
20260508181554 71 301 3.5 9.6 0.00 0.00 0.00 34 1006.6
20260508180055 71 229 5.2 12.2 0.00 0.00 0.00 34 1006.9
20260508174550 70 196 6.1 13.0 0.00 0.00 0.00 38 1007.1
20260508173044 69 207 5.2 13.0 0.00 0.00 0.00 39 1007.2
20260508171542 68 238 5.2 13.9 0.00 0.00 0.00 39 1007.5
20260508170040 67 252 6.1 15.6 0.00 0.00 0.00 43 1007.7
20260508164535 67 234 7.0 14.8 0.00 0.00 0.00 42 1007.9
20260508163036 66 238 7.8 13.0 0.00 0.00 0.00 45 1008.0
20260508161532 64 227 6.1 11.3 0.00 0.00 0.00 49 1008.2
20260508160025 63 219 6.1 11.3 0.00 0.00 0.00 50 1008.3
20260508154522 62 224 7.0 12.2 0.00 0.00 0.00 52 1008.6
20260508153017 60 232 5.2 9.6 0.00 0.00 0.00 56 1008.8
20260508151515 58 229 5.2 11.3 0.00 0.00 0.00 60 1009.0